N875QS CYWG-CYYZ

Flight info

Callsign N875QS
Flight time 1h 54m
Altitude 35000
Route RORMA DCT AXOMA DCT SIDPO DCT DEGVA DCT AGLIN DCT OTNIK BOXUM7
Aircraft C700/M-SBDGHM1RWXY/LB2

Departure

Time 2026-05-04 03:26
Airport Winnipeg / James Armstrong Richardson International Airport (CYWG)

Arrival

Time 2026-05-04 05:20
Airport Toronto Pearson International Airport (CYYZ)
Time Latitude Longitude Altitude Speed Heading
2026-05-04 02:57 49.90106 -97.23042 779 ft 0 kts 220°
2026-05-04 03:20 49.90098 -97.23044 779 ft 5 kts 171°
2026-05-04 03:20 49.90036 -97.22953 777 ft 24 kts 135°
2026-05-04 03:20 49.89917 -97.22764 775 ft 15 kts 139°
2026-05-04 03:20 49.89897 -97.22741 775 ft 11 kts 133°
2026-05-04 03:21 49.89872 -97.22608 775 ft 3 kts 127°
2026-05-04 03:21 49.89826 -97.22611 776 ft 10 kts 189°
2026-05-04 03:21 49.89772 -97.22609 777 ft 8 kts 175°
2026-05-04 03:21 49.89727 -97.22571 777 ft 8 kts 128°
2026-05-04 03:22 49.89685 -97.22520 776 ft 3 kts 188°
2026-05-04 03:22 49.89663 -97.22555 775 ft 8 kts 228°
2026-05-04 03:22 49.89615 -97.22642 774 ft 12 kts 228°
2026-05-04 03:22 49.89606 -97.22657 774 ft 0 kts 228°
2026-05-04 03:23 49.89596 -97.22675 774 ft 6 kts 229°
2026-05-04 03:23 49.89589 -97.22688 774 ft 0 kts 229°
2026-05-04 03:23 49.89582 -97.22699 774 ft 7 kts 230°
2026-05-04 03:24 49.89545 -97.22777 773 ft 5 kts 260°
2026-05-04 03:24 49.89585 -97.22890 772 ft 14 kts 330°
2026-05-04 03:24 49.89609 -97.22914 771 ft 0 kts 320°
2026-05-04 03:25 49.89625 -97.22936 771 ft 23 kts 318°
2026-05-04 03:25 49.89981 -97.23424 779 ft 110 kts 319°
2026-05-04 03:26 49.90716 -97.24309 1287 ft 147 kts 321°
2026-05-04 03:26 49.91586 -97.25329 2362 ft 168 kts 318°
2026-05-04 03:26 49.92564 -97.26543 3397 ft 193 kts 318°
2026-05-04 03:26 49.93607 -97.28063 4464 ft 219 kts 314°
2026-05-04 03:27 49.94755 -97.29870 5525 ft 251 kts 315°
2026-05-04 03:27 49.95982 -97.31686 6527 ft 234 kts 317°
2026-05-04 03:27 49.97353 -97.33011 7510 ft 245 kts 340°
2026-05-04 03:27 49.99117 -97.32814 8540 ft 270 kts 14°
2026-05-04 03:28 50.00631 -97.30934 9563 ft 295 kts 47°
2026-05-04 03:28 50.01369 -97.27799 10540 ft 332 kts 79°
2026-05-04 03:28 50.01106 -97.24061 11566 ft 365 kts 105°
2026-05-04 03:28 50.00269 -97.20221 12647 ft 384 kts 111°
2026-05-04 03:29 49.99391 -97.16222 13681 ft 397 kts 107°
2026-05-04 03:29 49.98796 -97.12005 14583 ft 403 kts 101°
2026-05-04 03:29 49.98387 -97.07664 15332 ft 407 kts 98°
2026-05-04 03:29 49.97960 -97.03321 16537 ft 406 kts 103°
2026-05-04 03:30 49.97381 -96.99022 17935 ft 410 kts 106°
2026-05-04 03:30 49.96760 -96.94647 18905 ft 419 kts 105°
2026-05-04 03:30 49.96201 -96.90173 19844 ft 426 kts 103°
2026-05-04 03:30 49.95668 -96.85671 20736 ft 432 kts 103°
2026-05-04 03:31 49.95083 -96.81065 21692 ft 436 kts 104°
2026-05-04 03:31 49.94469 -96.76435 22617 ft 442 kts 104°
2026-05-04 03:31 49.93966 -96.71690 23370 ft 451 kts 96°
2026-05-04 03:31 49.93896 -96.66790 24085 ft 457 kts 90°
2026-05-04 03:32 49.93872 -96.61824 24781 ft 463 kts 90°
2026-05-04 03:32 49.93823 -96.56790 25471 ft 470 kts 91°
2026-05-04 03:32 49.93766 -96.51684 26142 ft 476 kts 90°
2026-05-04 03:32 49.93717 -96.46514 26796 ft 482 kts 90°
2026-05-04 03:33 49.93675 -96.41279 27453 ft 488 kts 90°
2026-05-04 03:33 49.93620 -96.35976 28115 ft 494 kts 90°
2026-05-04 03:33 49.93567 -96.30626 28809 ft 498 kts 90°
2026-05-04 03:33 49.93524 -96.25219 29419 ft 504 kts 90°
2026-05-04 03:34 49.93478 -96.19753 29997 ft 508 kts 90°
2026-05-04 03:34 49.93419 -96.14256 30612 ft 511 kts 90°
2026-05-04 03:34 49.93357 -96.08728 31197 ft 514 kts 89°
2026-05-04 03:34 49.93297 -96.03168 31779 ft 516 kts 89°
2026-05-04 03:35 49.93237 -95.97580 32340 ft 520 kts 89°
2026-05-04 03:35 49.93169 -95.91953 33024 ft 519 kts 89°
2026-05-04 03:35 49.93097 -95.86450 33834 ft 514 kts 89°
2026-05-04 03:35 49.93025 -95.80920 34384 ft 515 kts 89°
2026-05-04 03:36 49.92954 -95.75278 34396 ft 530 kts 89°
2026-05-04 03:36 49.92876 -95.69484 34406 ft 544 kts 90°
2026-05-04 03:36 49.92787 -95.63553 34412 ft 553 kts 90°
2026-05-04 03:37 49.92604 -95.51610 34413 ft 551 kts 90°
2026-05-04 03:37 49.92415 -95.39797 34423 ft 544 kts 90°
2026-05-04 03:38 49.92207 -95.28058 34418 ft 545 kts 90°
2026-05-04 03:38 49.91991 -95.16256 34425 ft 549 kts 90°
2026-05-04 03:39 49.91759 -95.04408 34433 ft 549 kts 90°
2026-05-04 03:39 49.91147 -94.92639 34418 ft 547 kts 102°
2026-05-04 03:40 49.88722 -94.81535 34427 ft 543 kts 115°
2026-05-04 03:40 49.85788 -94.70765 34429 ft 543 kts 115°
2026-05-04 03:41 49.82828 -94.59915 34385 ft 549 kts 115°
2026-05-04 03:41 49.79862 -94.49101 34383 ft 547 kts 115°
2026-05-04 03:42 49.76885 -94.38297 34376 ft 545 kts 115°
2026-05-04 03:42 49.73905 -94.27537 34374 ft 544 kts 115°
2026-05-04 03:43 49.70916 -94.16789 34394 ft 546 kts 115°
2026-05-04 03:43 49.67901 -94.05995 34416 ft 548 kts 115°
2026-05-04 03:44 49.64870 -93.95195 34417 ft 549 kts 115°
2026-05-04 03:44 49.61824 -93.84392 34432 ft 548 kts 115°
2026-05-04 03:45 49.58782 -93.73652 34425 ft 546 kts 116°
2026-05-04 03:45 49.55740 -93.62956 34423 ft 544 kts 116°
2026-05-04 03:46 49.52690 -93.52288 34444 ft 545 kts 116°
2026-05-04 03:46 49.49626 -93.41610 34446 ft 546 kts 116°
2026-05-04 03:47 49.46566 -93.31002 34439 ft 547 kts 116°
2026-05-04 03:47 49.43470 -93.20308 34441 ft 548 kts 116°
2026-05-04 03:48 49.40354 -93.09599 34454 ft 550 kts 116°
2026-05-04 03:48 49.37227 -92.98894 34461 ft 548 kts 116°
2026-05-04 03:49 49.34101 -92.88245 34457 ft 546 kts 116°
2026-05-04 03:49 49.30977 -92.77646 34464 ft 545 kts 116°
2026-05-04 03:50 49.27843 -92.67062 34465 ft 546 kts 116°
2026-05-04 03:50 49.24692 -92.56464 34462 ft 548 kts 115°
2026-05-04 03:51 49.21520 -92.45843 34462 ft 549 kts 116°
2026-05-04 03:51 49.18363 -92.35320 34462 ft 547 kts 116°
2026-05-04 03:52 49.15164 -92.24698 34470 ft 546 kts 116°
2026-05-04 03:52 49.12002 -92.14250 34474 ft 544 kts 116°
2026-05-04 03:53 49.08826 -92.03793 34473 ft 542 kts 116°
2026-05-04 03:53 49.05645 -91.93371 34466 ft 542 kts 116°
2026-05-04 03:54 49.02442 -91.82916 34480 ft 547 kts 116°
2026-05-04 03:54 48.99209 -91.72415 34495 ft 546 kts 115°
2026-05-04 03:55 48.95996 -91.62011 34485 ft 540 kts 116°
2026-05-04 03:55 48.92789 -91.51680 34487 ft 541 kts 116°
2026-05-04 03:56 48.89557 -91.41307 34492 ft 544 kts 116°
2026-05-04 03:56 48.86300 -91.30899 34514 ft 545 kts 116°
2026-05-04 03:57 48.83050 -91.20539 34503 ft 543 kts 116°
2026-05-04 03:57 48.79787 -91.10231 34503 ft 541 kts 116°
2026-05-04 03:58 48.74901 -90.94805 34514 ft 542 kts 116°
2026-05-04 03:58 48.71636 -90.84572 34527 ft 544 kts 116°
2026-05-04 03:59 48.68329 -90.74232 34530 ft 546 kts 116°
2026-05-04 03:59 48.65004 -90.63894 34501 ft 545 kts 116°
2026-05-04 04:00 48.61691 -90.53622 34527 ft 542 kts 116°
2026-05-04 04:00 48.58383 -90.43419 34535 ft 540 kts 116°
2026-05-04 04:01 48.55060 -90.33202 34554 ft 543 kts 116°
2026-05-04 04:01 48.51712 -90.22955 34553 ft 545 kts 116°
2026-05-04 04:02 48.48353 -90.12713 34559 ft 544 kts 116°
2026-05-04 04:02 48.44990 -90.02500 34561 ft 543 kts 116°
2026-05-04 04:03 48.41625 -89.92324 34554 ft 542 kts 116°
2026-05-04 04:03 48.38260 -89.82184 34559 ft 541 kts 116°
2026-05-04 04:04 48.34894 -89.72086 34559 ft 540 kts 116°
2026-05-04 04:04 48.31516 -89.61987 34562 ft 542 kts 116°
2026-05-04 04:05 48.28695 -89.53588 34566 ft 543 kts 116°
2026-05-04 04:05 48.24797 -89.41752 34561 ft 544 kts 112°
2026-05-04 04:06 48.21858 -89.31323 34544 ft 542 kts 112°
2026-05-04 04:06 48.19372 -89.22654 34564 ft 539 kts 112°
2026-05-04 04:07 48.16439 -89.12409 34584 ft 539 kts 112°
2026-05-04 04:07 48.13469 -89.02089 34589 ft 539 kts 112°
2026-05-04 04:08 48.10491 -88.91787 34586 ft 539 kts 112°
2026-05-04 04:08 48.07502 -88.81482 34587 ft 540 kts 112°
2026-05-04 04:09 48.04501 -88.71189 34610 ft 540 kts 112°
2026-05-04 04:09 48.01499 -88.60931 34584 ft 537 kts 112°
2026-05-04 04:10 47.98506 -88.50748 34572 ft 534 kts 112°
2026-05-04 04:10 47.95504 -88.40573 34575 ft 537 kts 112°
2026-05-04 04:11 47.92477 -88.30363 34602 ft 539 kts 112°
2026-05-04 04:11 47.89459 -88.20220 34583 ft 537 kts 112°
2026-05-04 04:12 47.86460 -88.10194 34584 ft 509 kts 112°
2026-05-04 04:12 47.85040 -88.05461 34577 ft 494 kts 112°
2026-05-04 04:12 47.83635 -88.00767 34579 ft 502 kts 112°
2026-05-04 04:13 47.82193 -87.95960 34593 ft 515 kts 112°
2026-05-04 04:13 47.80707 -87.91036 34602 ft 528 kts 112°
2026-05-04 04:13 47.79181 -87.85996 34599 ft 540 kts 112°
2026-05-04 04:13 47.77636 -87.80888 34591 ft 542 kts 112°
2026-05-04 04:14 47.74558 -87.70753 34591 ft 534 kts 112°
2026-05-04 04:14 47.71508 -87.60743 34598 ft 533 kts 112°
2026-05-04 04:15 47.68431 -87.50690 34603 ft 536 kts 112°
2026-05-04 04:15 47.65331 -87.40604 34618 ft 537 kts 112°
2026-05-04 04:16 47.62225 -87.30539 34622 ft 535 kts 112°
2026-05-04 04:16 47.59146 -87.20600 34626 ft 533 kts 112°
2026-05-04 04:17 47.56045 -87.10629 34631 ft 533 kts 112°
2026-05-04 04:17 47.52936 -87.00674 34634 ft 530 kts 112°
2026-05-04 04:18 47.49850 -86.90829 34635 ft 526 kts 112°
2026-05-04 04:18 47.46759 -86.81005 34642 ft 528 kts 112°
2026-05-04 04:19 47.43641 -86.71136 34644 ft 531 kts 113°
2026-05-04 04:19 47.40517 -86.61287 34656 ft 525 kts 113°
2026-05-04 04:20 47.37436 -86.51616 34648 ft 519 kts 113°
2026-05-04 04:20 47.34346 -86.41939 34653 ft 523 kts 113°
2026-05-04 04:21 47.31226 -86.32219 34654 ft 525 kts 113°
2026-05-04 04:21 47.28103 -86.22520 34664 ft 523 kts 114°
2026-05-04 04:22 47.24987 -86.12886 34664 ft 520 kts 114°
2026-05-04 04:22 47.21875 -86.03302 34668 ft 519 kts 114°
2026-05-04 04:23 47.18758 -85.93767 34668 ft 521 kts 114°
2026-05-04 04:23 47.15619 -85.84153 34668 ft 522 kts 114°
2026-05-04 04:24 47.12258 -85.74695 34611 ft 526 kts 132°
2026-05-04 04:24 47.09237 -85.74248 34279 ft 435 kts 209°
2026-05-04 04:24 47.07703 -85.76520 38839 ft 246 kts 259°
2026-05-04 04:25 47.07358 -85.78689 40697 ft 213 kts 261°
2026-05-04 04:25 47.06995 -85.81030 39754 ft 261 kts 259°
2026-05-04 04:25 47.06346 -85.83526 40130 ft 251 kts 240°
2026-05-04 04:25 47.05132 -85.85167 40921 ft 240 kts 217°
2026-05-04 04:26 47.03360 -85.86018 39581 ft 315 kts 179°
2026-05-04 04:26 47.01152 -85.84773 38619 ft 373 kts 135°
2026-05-04 04:26 46.99568 -85.81579 38142 ft 397 kts 123°
2026-05-04 04:26 46.98014 -85.77936 37464 ft 431 kts 120°
2026-05-04 04:27 46.96552 -85.74106 37606 ft 439 kts 117°
2026-05-04 04:27 46.95297 -85.69877 37215 ft 461 kts 107°
2026-05-04 04:27 46.94411 -85.65305 37144 ft 474 kts 106°
2026-05-04 04:27 46.93316 -85.60678 37207 ft 484 kts 110°
2026-05-04 04:28 46.92103 -85.56103 37668 ft 487 kts 111°
2026-05-04 04:28 46.90833 -85.51448 37666 ft 498 kts 111°
2026-05-04 04:28 46.89523 -85.46703 37677 ft 509 kts 111°
2026-05-04 04:28 46.88182 -85.41862 37686 ft 518 kts 111°
2026-05-04 04:29 46.85476 -85.32104 37682 ft 521 kts 111°
2026-05-04 04:29 46.82761 -85.22338 37675 ft 516 kts 111°
2026-05-04 04:30 46.80073 -85.12670 37672 ft 514 kts 111°
2026-05-04 04:30 46.77386 -85.02976 37692 ft 517 kts 111°
2026-05-04 04:31 46.74908 -84.93105 37689 ft 520 kts 110°
2026-05-04 04:31 46.71862 -84.83555 37687 ft 519 kts 115°
2026-05-04 04:32 46.68755 -84.74080 37688 ft 518 kts 115°
2026-05-04 04:32 46.65630 -84.64626 37684 ft 518 kts 115°
2026-05-04 04:33 46.62503 -84.55190 37680 ft 518 kts 115°
2026-05-04 04:33 46.59377 -84.45760 37682 ft 518 kts 115°
2026-05-04 04:34 46.56228 -84.36344 37677 ft 518 kts 115°
2026-05-04 04:34 46.53080 -84.26928 37679 ft 518 kts 115°
2026-05-04 04:35 46.49913 -84.17511 37683 ft 520 kts 116°
2026-05-04 04:35 46.46735 -84.08084 37691 ft 520 kts 116°
2026-05-04 04:36 46.43565 -83.98720 37697 ft 521 kts 116°
2026-05-04 04:36 46.40379 -83.89260 37689 ft 523 kts 115°
2026-05-04 04:37 46.33928 -83.70388 37692 ft 521 kts 116°
2026-05-04 04:38 46.30683 -83.61030 37690 ft 520 kts 116°
2026-05-04 04:38 46.27476 -83.51682 37703 ft 518 kts 116°
2026-05-04 04:39 46.24251 -83.42366 37700 ft 519 kts 116°
2026-05-04 04:39 46.21017 -83.33051 37703 ft 519 kts 116°
2026-05-04 04:40 46.17777 -83.23740 37704 ft 519 kts 116°
2026-05-04 04:40 46.14523 -83.14436 37691 ft 519 kts 116°
2026-05-04 04:41 46.11245 -83.05158 37691 ft 519 kts 119°
2026-05-04 04:41 46.07128 -82.96618 37706 ft 519 kts 127°
2026-05-04 04:42 46.02912 -82.88184 37700 ft 519 kts 126°
2026-05-04 04:42 45.98700 -82.79755 37710 ft 518 kts 126°
2026-05-04 04:43 45.94464 -82.71374 37704 ft 518 kts 127°
2026-05-04 04:43 45.90245 -82.63009 37687 ft 516 kts 127°
2026-05-04 04:44 45.86022 -82.54676 37686 ft 516 kts 127°
2026-05-04 04:44 45.81803 -82.46370 37741 ft 515 kts 127°
2026-05-04 04:45 45.77622 -82.38149 37735 ft 513 kts 127°
2026-05-04 04:47 45.62783 -82.09239 37736 ft 519 kts 127°
2026-05-04 04:47 45.57843 -82.01775 37731 ft 517 kts 139°
2026-05-04 04:48 45.52611 -81.94756 37733 ft 516 kts 139°
2026-05-04 04:49 45.39550 -81.77318 37728 ft 515 kts 139°
2026-05-04 04:49 45.34312 -81.70375 37731 ft 515 kts 139°
2026-05-04 04:50 45.29075 -81.63424 37734 ft 515 kts 139°
2026-05-04 04:50 45.23822 -81.56488 37729 ft 516 kts 139°
2026-05-04 04:51 45.18577 -81.49571 37746 ft 519 kts 139°
2026-05-04 04:51 45.13295 -81.42629 37746 ft 516 kts 139°
2026-05-04 04:52 45.08042 -81.35740 37743 ft 513 kts 139°
2026-05-04 04:52 45.02804 -81.28892 37741 ft 512 kts 139°
2026-05-04 04:53 44.97570 -81.22064 37456 ft 515 kts 139°
2026-05-04 04:53 44.94937 -81.18637 36803 ft 512 kts 139°
2026-05-04 04:53 44.92337 -81.15255 36130 ft 504 kts 139°
2026-05-04 04:54 44.89782 -81.11936 35475 ft 495 kts 139°
2026-05-04 04:54 44.87271 -81.08681 34833 ft 487 kts 139°
2026-05-04 04:54 44.84793 -81.05472 34195 ft 482 kts 139°
2026-05-04 04:54 44.82358 -81.02322 33537 ft 481 kts 139°
2026-05-04 04:55 44.79883 -80.99127 32890 ft 485 kts 139°
2026-05-04 04:55 44.77371 -80.95887 32244 ft 493 kts 139°
2026-05-04 04:55 44.74824 -80.92602 31588 ft 499 kts 139°
2026-05-04 04:55 44.72264 -80.89304 30930 ft 499 kts 139°
2026-05-04 04:56 44.70536 -80.87081 30484 ft 497 kts 140°
2026-05-04 04:56 44.67174 -80.82764 29586 ft 492 kts 140°
2026-05-04 04:56 44.65472 -80.80581 29138 ft 488 kts 140°
2026-05-04 04:56 44.62978 -80.77383 28499 ft 483 kts 140°
2026-05-04 04:57 44.60513 -80.74223 27863 ft 477 kts 140°
2026-05-04 04:57 44.58071 -80.71106 27242 ft 473 kts 140°
2026-05-04 04:57 44.55643 -80.68009 26623 ft 470 kts 140°
2026-05-04 04:57 44.53232 -80.64931 26005 ft 468 kts 140°
2026-05-04 04:58 44.50856 -80.61916 25398 ft 466 kts 140°
2026-05-04 04:58 44.48465 -80.58876 24782 ft 462 kts 140°
2026-05-04 04:58 44.46069 -80.55819 24166 ft 458 kts 140°
2026-05-04 04:58 44.43721 -80.52835 23576 ft 454 kts 141°
2026-05-04 04:59 44.41423 -80.49927 22940 ft 449 kts 141°
2026-05-04 04:59 44.39123 -80.47016 22348 ft 443 kts 141°
2026-05-04 04:59 44.36854 -80.44143 21776 ft 437 kts 141°
2026-05-04 04:59 44.34611 -80.41307 21201 ft 434 kts 141°
2026-05-04 05:00 44.32378 -80.38490 20630 ft 431 kts 141°
2026-05-04 05:00 44.30156 -80.35689 20064 ft 429 kts 141°
2026-05-04 05:00 44.25754 -80.30145 18953 ft 423 kts 141°
2026-05-04 05:01 44.23581 -80.27412 18393 ft 418 kts 141°
2026-05-04 05:01 44.21429 -80.24711 17813 ft 414 kts 141°
2026-05-04 05:01 44.19302 -80.22042 17247 ft 409 kts 141°
2026-05-04 05:01 44.17201 -80.19409 16729 ft 404 kts 141°
2026-05-04 05:02 44.15132 -80.16813 16203 ft 396 kts 141°
2026-05-04 05:02 44.13133 -80.14299 15686 ft 377 kts 141°
2026-05-04 05:02 44.11231 -80.11913 15201 ft 360 kts 141°
2026-05-04 05:02 44.09406 -80.09633 14802 ft 344 kts 141°
2026-05-04 05:03 44.07669 -80.07461 14480 ft 331 kts 142°
2026-05-04 05:03 44.05971 -80.05343 14057 ft 325 kts 142°
2026-05-04 05:04 44.00867 -79.99281 12768 ft 316 kts 152°
2026-05-04 05:04 43.98999 -79.97669 12349 ft 316 kts 152°
2026-05-04 05:04 43.97149 -79.96022 11926 ft 316 kts 152°
2026-05-04 05:06 43.85003 -79.85257 9997 ft 261 kts 153°
2026-05-04 05:06 43.83597 -79.83609 10003 ft 269 kts 140°
2026-05-04 05:06 43.82232 -79.81783 9829 ft 281 kts 141°
2026-05-04 05:07 43.80827 -79.79950 8973 ft 270 kts 142°
2026-05-04 05:07 43.79490 -79.78197 8121 ft 260 kts 142°
2026-05-04 05:07 43.78204 -79.76465 7309 ft 259 kts 137°
2026-05-04 05:09 43.83475 -79.59764 5998 ft 253 kts 43°
2026-05-04 05:09 43.84639 -79.57905 6003 ft 257 kts 45°
2026-05-04 05:10 43.85772 -79.56028 6000 ft 258 kts 46°
2026-05-04 05:10 43.86920 -79.54125 6000 ft 257 kts 46°
2026-05-04 05:10 43.88076 -79.52213 6004 ft 255 kts 46°
2026-05-04 05:10 43.89194 -79.50356 5999 ft 254 kts 46°
2026-05-04 05:11 43.90335 -79.48474 6005 ft 255 kts 45°
2026-05-04 05:11 43.91393 -79.46513 5963 ft 258 kts 61°
2026-05-04 05:11 43.91767 -79.44152 5343 ft 244 kts 96°
2026-05-04 05:11 43.91347 -79.41882 4754 ft 247 kts 119°
2026-05-04 05:12 43.90560 -79.39779 4175 ft 242 kts 124°
2026-05-04 05:12 43.89728 -79.37716 3609 ft 258 kts 125°
2026-05-04 05:12 43.88618 -79.35807 3053 ft 248 kts 152°
2026-05-04 05:12 43.87154 -79.35133 2993 ft 202 kts 191°
2026-05-04 05:13 43.85988 -79.35748 2995 ft 169 kts 230°
2026-05-04 05:13 43.85318 -79.37063 3013 ft 170 kts 243°
2026-05-04 05:13 43.84671 -79.38469 3014 ft 176 kts 241°
2026-05-04 05:13 43.83984 -79.39880 3016 ft 176 kts 240°
2026-05-04 05:14 43.83296 -79.41277 3014 ft 176 kts 240°
2026-05-04 05:14 43.82607 -79.42675 3010 ft 175 kts 240°
2026-05-04 05:14 43.81919 -79.44066 3004 ft 174 kts 240°
2026-05-04 05:14 43.81242 -79.45443 2999 ft 172 kts 240°
2026-05-04 05:15 43.80569 -79.46812 2998 ft 172 kts 240°
2026-05-04 05:15 43.79891 -79.48178 2991 ft 172 kts 239°
2026-05-04 05:15 43.79080 -79.49422 2989 ft 176 kts 231°
2026-05-04 05:15 43.78239 -79.50640 2992 ft 172 kts 233°
2026-05-04 05:16 43.77442 -79.51808 2857 ft 164 kts 232°
2026-05-04 05:16 43.76672 -79.52926 2648 ft 158 kts 232°
2026-05-04 05:16 43.75923 -79.54013 2442 ft 154 kts 232°
2026-05-04 05:16 43.75193 -79.55086 2230 ft 151 kts 233°
2026-05-04 05:17 43.74504 -79.56099 2159 ft 122 kts 232°
2026-05-04 05:17 43.74029 -79.56768 1989 ft 84 kts 233°
2026-05-04 05:17 43.73641 -79.57341 1595 ft 81 kts 231°
2026-05-04 05:17 43.73255 -79.57912 1512 ft 85 kts 232°
2026-05-04 05:18 43.72822 -79.58557 1740 ft 99 kts 231°
2026-05-04 05:18 43.72339 -79.59257 1745 ft 97 kts 231°
2026-05-04 05:18 43.71885 -79.59938 1532 ft 98 kts 231°
2026-05-04 05:18 43.71357 -79.60654 1252 ft 114 kts 226°
2026-05-04 05:19 43.70802 -79.61481 1022 ft 124 kts 230°
2026-05-04 05:19 43.70205 -79.62353 825 ft 126 kts 227°
2026-05-04 05:19 43.69563 -79.63183 751 ft 124 kts 223°
2026-05-04 05:19 43.69040 -79.64047 571 ft 105 kts 221°
2026-05-04 05:20 43.68630 -79.64638 564 ft 62 kts 227°
2026-05-04 05:20 43.68391 -79.64989 571 ft 46 kts 224°
2026-05-04 05:20 43.68162 -79.65319 567 ft 37 kts 226°
2026-05-04 05:20 43.68027 -79.65521 568 ft 31 kts 229°
2026-05-04 05:21 43.67907 -79.65728 569 ft 19 kts 249°
2026-05-04 05:21 43.67876 -79.65910 567 ft 20 kts 256°
2026-05-04 05:21 43.67853 -79.66041 572 ft 0 kts 256°
2026-05-04 05:22 43.67852 -79.66042 571 ft 2 kts 256°
2026-05-04 05:22 43.67818 -79.66150 571 ft 19 kts 230°
2026-05-04 05:22 43.67717 -79.66297 567 ft 23 kts 229°
2026-05-04 05:22 43.67677 -79.66361 570 ft 3 kts 235°
2026-05-04 05:23 43.67611 -79.66453 565 ft 24 kts 224°
2026-05-04 05:23 43.67543 -79.66529 566 ft 3 kts 182°
2026-05-04 05:23 43.67511 -79.66511 567 ft 6 kts 141°
2026-05-04 05:23 43.67505 -79.66504 566 ft 0 kts 141°
2026-05-04 05:25 43.67492 -79.66488 565 ft 13 kts 130°
2026-05-04 05:25 43.67408 -79.66381 571 ft 21 kts 143°
2026-05-04 05:25 43.67294 -79.66268 574 ft 12 kts 137°
2026-05-04 05:26 43.67314 -79.66147 571 ft 24 kts 47°
2026-05-04 05:26 43.67493 -79.65889 571 ft 47 kts 46°
2026-05-04 05:26 43.67742 -79.65523 570 ft 58 kts 46°
2026-05-04 05:26 43.67995 -79.65162 569 ft 47 kts 45°
2026-05-04 05:27 43.68128 -79.64968 570 ft 20 kts 48°
2026-05-04 05:28 43.67956 -79.64106 561 ft 22 kts 134°
2026-05-04 05:29 43.67892 -79.64022 561 ft 9 kts 137°
2026-05-04 05:29 43.67890 -79.63940 562 ft 12 kts 54°
2026-05-04 05:29 43.67954 -79.63876 564 ft 8 kts 346°
2026-05-04 05:29 43.68041 -79.63877 566 ft 12 kts 32°
2026-05-04 05:31 43.68200 -79.63734 557 ft 0 kts 50°